User: anonymous   Login
Location: Katowice
(50.2611°N, 19.0242°E)
Time: 06:10:08
(UTC+02:00)
Language:

Transit 2A Rocket - Orbit

View from above orbital plane
View from above orbital plane
View from above satellite
View from above satellite

Ground track
Ground track

The orbit data is extracted from the following two-line orbital elements,

1    47U 60007C   19201.52059978 -.00000047  00000-0  14572-4 0  9997
2    47  66.6669 325.1676 0229203 188.7739 170.9331 14.42042425 87123
Epoch (UTC): 20 July 2019 12:29:39
Eccentricity: 0.0229203
inclination: 66.6669°
perigee height: 588 km
apogee height: 915 km
right ascension of ascending node: 325.1676°
argument of perigee: 188.7739°
revolutions per day: 14.42042425
mean anomaly at epoch: 170.9331°
orbit number at epoch: 8712

The dashed part of the orbit path shows where the satellite is in the earth's shadow,  

DLR